Aurora, CO

10:11 AM MDT on October 22, 2017 (GMT -0600)
Buckley Air Force Base

Weather History for KBKF - November, 2011

Change the Weather History Date:

Wednesday, November 2, 2011

  Actual Average Record
Temperature  
Mean Temperature 22 °F -  
Max Temperature 30 °F 53 °F 75 °F (2005)
Min Temperature 15 °F 29 °F 15 °F (2004)
Degree Days  
Heating Degree Days 42    
Moisture  
Dew Point 24 °F    
Average Humidity 95    
Maximum Humidity 100    
Minimum Humidity 80    
Precipitation  
Precipitation 0.40 in - - ()
Snow  
Snow 0.00 in - - ()
Snow Depth 5.00 in    
Sea Level Pressure  
Sea Level Pressure 30.42 in    
Wind  
Wind Speed 14 mph (North)    
Max Wind Speed 21 mph    
Max Gust Speed 25 mph    
Visibility 4 miles    
Events Fog , Snow    
Averages and records for this station are not official NWS values.
T = Trace of Precipitation, MM = Missing Value Source: NWS Daily Summary

Daily Weather History Graph

Daily Weather History Graph

Search for Another Location

Airport or City:

Trip Planner

Search our weather history database for the weather conditions in past years. The results will help you decide how hot, cold, wet, or windy it might be!

Date:

Astronomy

Nov. 02, 2011 Rise Set
Actual Time 7:28 AM MDT 5:56 PM MDT
Civil Twilight 7:00 AM MDT 6:24 PM MDT
Nautical Twilight 6:28 AM MDT 6:56 PM MDT
Astronomical Twilight 5:57 AM MDT 7:27 PM MDT
Moon 1:49 PM MDT (11/2) No Moon Set
Length of Visible Light 11h 23m
Length of Day
10h 27m
Waxing Crescent, 51% of the Moon is Illuminated
Nov 2
Waxing Crescent
Nov 10
Full
Nov 18
Last Quarter
Nov 24
New
Dec 2
First Quarter

Hourly Weather History & Observations

Time (MDT) Temp. Windchill Dew Point Humidity Pressure Visibility Wind Dir Wind Speed Gust Speed Precip Events Conditions
12:55 AM 26.6 °F 15.7 °F 26.6 °F 100% 30.18 in 1.0 mi North 12.7 mph - N/A Snow Light Snow
1:29 AM 26.6 °F 14.7 °F 24.8 °F 93% 30.18 in 0.5 mi North 15.0 mph - N/A Fog , Snow Snow
1:55 AM 26.6 °F 13.1 °F 24.8 °F 93% 30.19 in 0.5 mi NNW 19.6 mph - N/A Fog , Snow Snow
2:55 AM 26.6 °F 13.8 °F 24.8 °F 93% 30.21 in 0.5 mi NNW 17.3 mph 25.3 mph N/A Snow Snow
3:55 AM 26.6 °F 14.3 °F 24.8 °F 93% 30.23 in 0.8 mi NNW 16.1 mph - N/A Snow Light Snow
4:55 AM 26.6 °F 12.7 °F 24.8 °F 93% 30.28 in 0.8 mi NNW 20.7 mph - N/A Snow Light Snow
5:55 AM 26.6 °F 13.8 °F 24.8 °F 93% 30.35 in 1.0 mi North 17.3 mph - N/A Snow Light Snow
6:55 AM 26.6 °F 12.7 °F 24.8 °F 93% 30.38 in 1.0 mi NNW 20.7 mph - N/A Snow Light Snow
7:55 AM 26.6 °F 13.4 °F 26.6 °F 100% 30.40 in 1.2 mi NNW 18.4 mph - N/A Snow Light Snow
8:47 AM 26.6 °F 14.7 °F 26.6 °F 100% 30.37 in 3.0 mi NNW 15.0 mph - N/A Snow Light Snow
8:55 AM 26.6 °F 14.3 °F 26.6 °F 100% 30.46 in 4.0 mi NNW 16.1 mph - N/A Snow Light Snow
9:55 AM 26.6 °F 16.2 °F 26.6 °F 100% 30.50 in 3.0 mi NNW 11.5 mph - N/A Snow Light Snow
10:55 AM 26.6 °F 12.7 °F 26.6 °F 100% 30.50 in 2.0 mi North 20.7 mph - N/A Snow Light Snow
11:31 AM 26.6 °F 13.8 °F 26.6 °F 100% 30.43 in 4.0 mi North 17.3 mph - N/A Snow Light Snow
11:55 AM 26.6 °F 13.8 °F 26.6 °F 100% 30.54 in 7.0 mi North 17.3 mph - N/A Snow Light Snow
12:42 PM 26.6 °F 15.2 °F 26.6 °F 100% 30.44 in 5.0 mi North 13.8 mph - N/A Snow Light Snow
12:55 PM 26.6 °F 14.7 °F 26.6 °F 100% 30.53 in 7.0 mi North 15.0 mph - N/A Snow Light Snow
1:34 PM 28.4 °F 21.2 °F 28.4 °F 100% 30.43 in 7.0 mi North 6.9 mph - N/A Snow Light Snow
1:55 PM 30.2 °F 21.3 °F 26.6 °F 86% 30.50 in 7.0 mi NNE 10.4 mph - N/A Snow Light Snow
2:55 PM 28.4 °F 23.3 °F 23.0 °F 80% 30.52 in 7.0 mi NNE 4.6 mph - N/A   Mostly Cloudy
3:55 PM 26.6 °F 20.0 °F 23.0 °F 86% 30.51 in 7.0 mi ESE 5.8 mph - N/A   Scattered Clouds
4:55 PM 24.8 °F 17.9 °F 23.0 °F 93% 30.51 in 7.0 mi SE 5.8 mph - N/A   Partly Cloudy
5:55 PM 24.8 °F 17.9 °F 21.2 °F 86% 30.50 in 7.0 mi SSE 5.8 mph - N/A   Partly Cloudy
6:55 PM 19.4 °F 12.8 °F 19.4 °F 100% 30.52 in 7.0 mi South 4.6 mph - N/A   Partly Cloudy
7:55 PM 19.4 °F 10.4 °F 19.4 °F 100% 30.52 in 7.0 mi South 6.9 mph - N/A   Partly Cloudy
8:55 PM 17.6 °F 6.4 °F 17.6 °F 100% 30.54 in 7.0 mi South 9.2 mph - N/A   Clear
9:55 PM 15.8 °F 4.2 °F 15.8 °F 100% 30.54 in 7.0 mi South 9.2 mph - N/A   Clear
10:55 PM 17.6 °F 5.0 °F 15.8 °F 93% 30.51 in 7.0 mi South 11.5 mph - N/A   Clear
11:55 PM 19.4 °F 7.2 °F 15.8 °F 86% 30.50 in 7.0 mi South 11.5 mph - N/A   Clear